Regional Weather Roundup
Issued by NWS Sterling, VA

Home | Current Version | Previous Version | Text Only | Print | Product List | Glossary Off
Versions: 1 2 3 4 5 6 7 8 9 10 11 12 13 14 15 16 17 18 19 20 21 22 23 24 25 26 27 28 29 30 31 32 33 34 35 36 37 38 39 40 41 42 43 44 45 46 47 48 49 50

000
ASUS41 KLWX 231910
RWRLWX

REGIONAL WEATHER ROUNDUP
NATIONAL WEATHER SERVICE BALTIMORE MD/WASHINGTON DC
200 PM EST SUN NOV 23 2014

Note: "FAIR" indicates few or no clouds below 12,000 feet
with no significant weather and/or obstructions to visibility.
 TC=TEMPERATURE CELSIUS

 * =Non NWS site. Station does not report precipitation (e.g. rain,
    snow, etc.), thunder, or fog.

DCZ001-MDZ009-015-VAZ040>042-051-053>054-232000-
WASHINGTON METRO

CITY           SKY/WX    TMP DP  RH WIND       PRES   REMARKS
WASHINGTON NAT PTSUNNY   55  28  35 S7        30.13F
DULLES         PTSUNNY   50  27  40 SE6       30.12F
ANDREWS AFB    PTSUNNY   58  35  40 SW9       30.12F
FT BELVOIR     PTSUNNY   56  28  34 S3        30.13F
QUANTICO       PTSUNNY   53  27  36 CALM      30.13F
COLLEGE PARK*  PTSUNNY   55  27  33 SW3       30.12F
LEESBURG*      PTSUNNY   50  30  46 S3        30.12F
MANASSAS*      SUNNY     55  28  35 CALM      30.12F
GAITHERSBURG*  PTSUNNY   52  25  35 SE5       30.15F

$$

MDZ006>007-011-014-232000-
BALTIMORE METRO

CITY           SKY/WX    TMP DP  RH WIND       PRES   REMARKS
BWI AIRPORT    CLOUDY    53  25  33 CALM      30.12F
MD SCIENCE CTR   N/A     50  24  36 MISG      30.14F
MARTIN STATE   MOSUNNY   50  36  57 SE5       30.16F
ANNAPOLIS      CLOUDY    48  39  71 SE8       30.13F
FORT MEADE*    CLOUDY    54  27  35 SW5       30.15F

$$

MDZ012-015-019>023-232000-
MARYLAND EASTERN SHORE

CITY           SKY/WX    TMP DP  RH WIND       PRES   REMARKS
OCEAN CITY     CLOUDY    54  44  69 S5        30.17F
SALISBURY      CLOUDY    58  45  62 S5        30.16F
BAY BRIDGE AP*   N/A     54  32  43 SE7       30.14F
CAMBRIDGE*     CLOUDY    55  43  62 SE6       30.15S

$$

MDZ017>025-232000-
SOUTHERN MARYLAND

CITY           SKY/WX    TMP DP  RH WIND       PRES   REMARKS
PATUXENT RIVER CLOUDY    52  44  74 SE7       30.14F
ST INIGOES     PTSUNNY   55  42  61 SE5       30.14F
LEONARDTOWN*   PTSUNNY   57  43  58 SE6       30.14F

$$

MDZ003>005-232000-
NORTH CENTRAL MARYLAND

CITY           SKY/WX    TMP DP  RH WIND       PRES   REMARKS
FREDERICK*     SUNNY     57  18  21 S6        30.14F
HAGERSTOWN APT MOSUNNY   56  23  27 S6        30.07F
WESTMINSTER*   PTSUNNY   54  19  26 S9        30.09F

$$

MDZ501>502-232000-
WESTERN MARYLAND

CITY           SKY/WX    TMP DP  RH WIND       PRES   REMARKS
OAKLAND*       MOSUNNY   55  32  41 SE14G20   29.99F
CUMBERLAND*    MOSUNNY   59  28  31 CALM      30.06F

$$

VAZ025>031-232000-
SHENANDOAH VALLEY

CITY           SKY/WX    TMP DP  RH WIND       PRES   REMARKS
WINCHESTER*    MOSUNNY   59  18  20 SE7       30.07F
FRONT ROYAL*   FAIR      57  28  33 CALM      30.06F
LURAY*         FAIR      61  39  44 SW8       30.06F
NEW MARKET*    FAIR      55  32  41 CALM      30.06F
STAUNTON*        N/A    N/A N/A N/A MISG        N/A
WAYNESBORO*    FAIR      56  46  68 S10       30.06F

$$

WVZ021-048>050-054>055-232000-
EASTERN WEST VIRGINIA PANHANDLE

CITY           SKY/WX    TMP DP  RH WIND       PRES   REMARKS
MARTINSBURG    PTSUNNY   57  24  28 SE7       30.07F
PETERSBURG*    MOSUNNY   62  36  37 S10G16    30.02F

$$

VAZ036>039-050-232000-
CENTRAL FOOTHILLS

CITY           SKY/WX    TMP DP  RH WIND       PRES   REMARKS
CHARLOTTESVILL CLOUDY    55  28  35 SE5       30.10F
CULPEPER*      PTSUNNY   59  32  36 S5        30.11F
ORANGE*        CLOUDY    57  32  38 S6        30.12F
GORDONSVILLE*  FAIR      55  29  37 SW5       30.10F
WARRENTON*     PTSUNNY   60  41  50 S5        30.10F

$$

VAZ055>057-232000-
NORTH AND CENTRAL PIEDMONT

CITY           SKY/WX    TMP DP  RH WIND       PRES   REMARKS
FREDERICKSBRG* PTSUNNY   63  45  51 S9        30.11F
STAFFORD*      PTSUNNY   60  35  39 CALM      30.15F

$$

NCZ024-NYZ072-PAZ021-071-VAZ022-071-232000-
OTHER REGIONAL OBSERVATIONS

CITY           SKY/WX    TMP DP  RH WIND       PRES   REMARKS
NEW YORK CITY  SUNNY     56  24  29 VRB5      30.16S
PHILADELPHIA   PTSUNNY   53  26  35 S7        30.15F
PITTSBURGH     CLOUDY    63  44  50 SE8       29.93F
ROANOKE        CLOUDY    48  29  47 N3        30.09F
RICHMOND       CLOUDY    56  43  61 S5        30.14F
RALEIGH        CLOUDY    54  48  80 E5        30.09F

$$

ANZ530>537-232000-
MARINE OBSERVATIONS

STATION/POSITION TIME  TEMP    WIND        PRES
                       AIR SEA DIR/SP/G
                 (UTC) (F)     (DEG/KT/KT) (MB)
THOMAS PT LIGHT  1900   48 47  170/ 10/ 10 1021.6F
BALT KEY BRIDGE  1900   48      60/  1/  2 1020.5F
COVE POINT       1900   48     180/ 12/ 13 1020.8F
LEWISETTA        1900   57 44  210/  5/  7 1020.5F
SOLOMONS ISLAND  1900      49                N/A
PINEY POINT      1900          130/  9/ 10   N/A

$$



USA.gov is the U.S. government's official web portal to all federal, state and local government web resources and services.